Location: Erfurt
(50.9688°N, 11.0193°E)
Time: 13:39:48
(UTC+01:00)

ISS - Pass Details

Date: 13 January 2018
Orbit: 402 x 407 km, 51.6° (Epoch: 21 January)

Event Time Altitude Azimuth Distance (km) Brightness Sun altitude
Exits shadow 07:06:22 - 251° (WSW) 1,519 -1.4 -10.3°
Reaches altitude 10° 07:06:40 10° 247° (WSW) 1,465 -1.4 -10.2°
Maximum altitude 07:08:00 12° 222° (SW) 1,346 -1.4 -10.0°
Drops below altitude 10° 07:09:21 10° 198° (SSW) 1,462 -0.9 -9.8°
Sets 07:12:27 0° 166° (SSE) 2,318 0.6 -9.4°
